AirNav   Air Wisconsin pilot careers
 
 1572 users online  

8T8 San Geronimo Airpark
San Antonio, Texas, USA

GOING TO SAN ANTONIO?


FAA INFORMATION EFFECTIVE 11 OCTOBER 2018

Location

FAA Identifier: 8T8
Lat/Long: 29-30-36.7000N / 098-47-54.3000W
29-30.611667N / 098-47.905000W
29.5101944 / -98.7984167
(estimated)
Elevation: 1040 ft. / 317 m (estimated)
Variation: 07E (1985)
From city: 10 miles W of SAN ANTONIO, TX
Time zone: UTC -5 (UTC -6 during Standard Time)
Zip code: 78253

Airport Operations

Airport use: Open to the public
Activation date: 05/1981
Control tower: no
ARTCC: HOUSTON CENTER
FSS: SAN ANGELO FLIGHT SERVICE STATION
NOTAMs facility: SJT (NOTAM-D service available)
Attendance: UNATNDD
Wind indicator: yes
Segmented circle: no

Airport Communications

CTAF: 122.9
WX AWOS-3 at CVB (10 nm S): 119.25 (830-931-0232)
WX AWOS-3 at 5C1 (14 nm NE): 118.725 (830-755-9099)
WX ASOS at SAT (17 nm E): PHONE 210-805-5583

Nearby radio navigation aids

VOR radial/distance  VOR name  Freq  Var
SATr237/19.3SAN ANTONIO VORTAC116.8008E
SSFr300/(23.9)STINSON VOR108.4009E
RNDr264/26.8RANDOLPH VORTAC112.3005E
CSIr131/32.9CENTER POINT VORTAC117.5008E

 
NDB name  Hdg/Dist  Freq  Var  ID
ALAMO240/13.336804EAN .- -.
HONDO059/21.232908EHMA .... -- .-
DEVINE011/23.535907EHHH .... .... ....

Airport Services

Parking: tiedowns

Runway Information

Runway 17/35

Dimensions: 3000 x 40 ft. / 914 x 12 m
SHOULDERS SOFT & MUDDY WHEN WET.
Surface: asphalt, in good condition
Runway edge markings: NUMBERS 35 FT HIGH. CNTRLN 4 INCH WIDE BY 10 FT LONG WITH 30 FT SPACES.
Gradient: N.
RUNWAY 17  RUNWAY 35
Latitude: 29-30.858538N29-30.363448N
Longitude: 098-47.905867W098-47.904235W
Elevation: 1037.0 ft.1005.0 ft.
Gradient: 1.1% UP
Traffic pattern: leftleft
Runway heading: 173 magnetic, 180 true353 magnetic, 360 true
Markings: NSTD, in good conditionNSTD, in good condition
Obstructions: 10 ft. tree, 200 ft. from runway, 100 ft. left of centerline
+5 FT FENCE 100 FT EAST OF RY CNTRLN FM THLD TO 200 FT. 8-20 FT TREES 100 FT EAST OF CNTRLN FM THLD TO 200 FT.
25 ft. tree, 200 ft. from runway, 100 ft. right of centerline
+5 FT FENCE 100 FT EAST OF RY CNTRLN FM THLD TO 200 FT. 15-30+ FT TREES 100 FT EAST OF CNTRLN FM THLD TO 200 FT.

Airport Ownership and Management from official FAA records

Ownership: Privately-owned
Owner: SAN GERONIMO AIRPARK INC.
15464 CULEBRA BOX 30
SAN ANTONIO, TX 78253
Manager: LEWIS MASON
15464 CULEBRA BOX 27
SAN ANTONIO, TX 78253
Phone (210) 688-9072
ADDITIONAL CTC- RON O'DEA 210-488-5088, SECRETARY/TREASURER OF AIRPORT ASSOCIATION.

Airport Operational Statistics

Aircraft based on the field: 103
Single engine airplanes: 100
Helicopters: 1
Ultralights: 2
    
Aircraft operations: avg 40/week *
71% local general aviation
29% transient general aviation
* for 12-month period ending 27 October 2016

Additional Remarks

+15 FT HANGARS LOCATED 112 FT WEST ALONG RY 17/35.
NO TOUCH & GO OR STOP & GO LANDINGS AT NIGHT. LIMIT 2 TOUCH & GO DURG DAYTIME.
FOR CD CTC SAT APCH AT 210-805-5516.

Instrument Procedures

There are no published instrument procedures at 8T8.

Some nearby airports with instrument procedures:

KCVB - Castroville Municipal Airport (10 nm S)
KSKF - Kelly Field Airport (14 nm SE)
5C1 - Boerne Stage Field Airport (14 nm NE)
KSAT - San Antonio International Airport (17 nm E)
KSSF - Stinson Municipal Airport (20 nm SE)
 
Loc | Ops | Rwys | IFR | FBO | Links
Com | Nav | Svcs | Stats | Notes


 
Area around 8T8 (San Geronimo Airpark)
 
Road maps at: MapQuest Bing Google
 
Aerial photo
WARNING: Photo may not be current or correct
Aerial photo of 8T8 (San Geronimo Airpark)
Photo by Brian Goode
Photo taken 15-Jan-2014
looking north.

Do you have a better or more recent aerial photo of San Geronimo Airpark that you would like to share? If so, please send us your photo.

 
Sectional chart

 
Airport distance calculator
Flying to San Geronimo Airpark? Find the distance to fly.

From to 8T8

Sunrise and sunset
Times for 15-Oct-2018
 Local
(UTC-5)
 Zulu
(UTC)
Morning civil twilight07:1412:14
Sunrise07:3812:38
Sunset19:0400:04
Evening civil twilight19:2800:28

Current date and time
Zulu (UTC)  15-Oct-2018 19:55:08
Local (UTC-5)  15-Oct-2018 14:55:08
 
METAR
KCVB 
10nm S 
151935Z AUTO 02010G17KT 5SM -RA BKN013 OVC031 09/08 A3013 RMK AO2 LTG DSNT NE P0011 T00880080
K5C1 
14nm NE 
151935Z AUTO 01015G23KT 10SM BKN009 OVC018 06/05 A3014 RMK AO1 P0003
KSKF 
15nm SE 
151910Z 03016G24KT 10SM -RA FEW014 BKN018 09/07 A3009 RMK SLP186 $
KSAT 
17nm E 
151851Z 36016G24KT 5SM +RA BR OVC017 08/06 A3014 RMK AO2 PK WND 02029/1810 LTG DSNT N SLP195 P0041 T00780061
KSSF 
20nm SE 
151931Z 01018G24KT 9SM -RA BKN013 OVC026 10/07 A3009 RMK AO2 P0001 T01000067
TAF
KSKF 
15nm SE 
151800Z 1518/1624 02015G25KT 9000 -SHRA BKN015 OVC035 520004 QNH3008INS TEMPO 1518/1521 01020G36KT 4800 TSRA OVC015CB BECMG 1601/1602 36012G20KT 9000 -RA BKN010 OVC025 QNH3010INS BECMG 1607/1608 01012G20KT 9000 -RA BKN008 OVC015 QNH3012INS BECMG 1617/1618 01015G25KT 9999 VCSH BKN012 OVC034 QNH3016INS TX10/1520Z TN06/1611Z
KSAT 
17nm E 
151741Z 1518/1624 01015G27KT 6SM -SHRA BR OVC015 FM160200 36015KT 6SM BR VCSH OVC007
NOTAMs
Click for the latest NOTAMs
NOTAMs are issued by the DoD/FAA and will open in a separate window not controlled by AirNav.

 

 
 

Would you like to see your business listed on this page?

 If your business provides an interesting product or service to pilots, flight crews, aircraft, or users of the San Geronimo Airpark, you should consider listing it here.  To start the listing process, click on the button below
 
Add a business
 

Other Pages about San Geronimo Airpark

Update a link
 
Copyright © AirNav, LLC. All rights reserved. Privacy Policy  Contact